Regional Weather Roundup
Issued by NWS

Home | Current Version | Previous Version | Graphics & Text | Print | Product List | Glossary On
Versions: 1 2 3 4 5 6 7 8 9 10 11 12 13 14 15 16 17 18 19 20 21 22 23 24 25 26 27 28 29 30 31 32 33 34 35 36 37 38 39 40 41 42 43 44 45 46 47 48 49 50
000
ASUS45 KSLC 181910
RWRUT

UTAH REGIONAL WEATHER ROUNDUP
NATIONAL WEATHER SERVICE SALT LAKE CITY UT
1200 PM MST THU DEC 18 2014

UTZ001>011-023>025-182000-

NORTHERN UTAH

CITY           SKY/WX    TMP DP  RH WIND       PRES   REMARKS
BRIGHAM CITY   CLOUDY    38  30  72 CALM      30.17S
HILL AFB       PTSUNNY   38  30  71 E2        30.15S
LOGAN          SUNNY     38  26  62 CALM      30.15F
OGDEN          CLOUDY    39  31  72 SE3       30.15F
PROVO AIRPORT  PTSUNNY   37  34  87 CALM      30.17F
SALT LAKE CITY MOSUNNY   40  33  76 S7        30.16S
VERNAL         CLOUDY    27  23  85 E6        30.19F WCI  20
WENDOVER       CLOUDY    34  27  75 E3        30.17F
HEBER CITY     LGT SNOW  32  28  86 CALM      30.13F
WEST JORDAN    CLOUDY    37  37 100 SW6       30.16F WCI  33

$$

UTZ012>022-026-027-182000-

SOUTHERN/CENTRAL UTAH

CITY           SKY/WX    TMP DP  RH WIND       PRES   REMARKS
BLANDING       CLOUDY    35  32  89 W3        30.21F
BRYCE CANYON   PTSUNNY   30  23  75 NW9       30.13F WCI  22
CEDAR CITY     MOSUNNY   39  29  67 CALM      30.14F
DELTA          SUNNY     40  32  75 S3        30.16F
MILFORD        MOSUNNY   42  31  64 SW9       30.15F
MOAB/CYNLANDS  CLOUDY    38  34  85 CALM      30.15F
PRICE          CLOUDY    30  27  88 S3        30.13F
ST GEORGE      PTCLDY    48  39  71 CALM      30.20F
KANAB          PTSUNNY   39  34  81 CALM      30.20F

$$

REGIONAL REPORTS     COLORADO/ARIZONA

CITY           SKY/WX    TMP DP  RH WIND       PRES   REMARKS
CRAIG, CO      LGT SNOW  27  24  89 SW5       30.14F FOG     WCI  22
GRAND JUNCTION PTSUNNY   36  33  89 NW7       30.15F WCI  30
RIFLE          PTSUNNY   36  32  85 W6        30.13F WCI  31
MONTROSE       CLOUDY    36  33  89 NE3       30.14F
CORTEZ         CLOUDY    35  32  88 SW7       30.14F WCI  29
PAGE, AZ       CLOUDY    43  34  70 CALM      30.16F
GRAND CANYON   CLOUDY    33  30  88 S3        30.15F
KINGMAN        CLOUDY    47  39  74 VRB3      30.17F
FLAGSTAFF      LGT SNOW  32  29  88 CALM      30.12F FOG

$$

REGIONAL REPORTS    NEVADA/IDAHO/WYOMING

CITY           SKY/WX    TMP DP  RH WIND       PRES   REMARKS
LAS VEGAS, NV  PTSUNNY   51  41  68 SW5       30.16F
ELY            MOSUNNY   37  27  67 VRB3      30.14F
ELKO           CLOUDY    34  28  79 VRB3      30.14F
POCATELLO, ID  MOSUNNY   34  30  85 NW3       30.14F
BURLEY         CLOUDY    38  28  67 CALM      30.12F
EVANSTON, WY   PTSUNNY   30  24  78 SW12      30.10F WCI  20
ROCK SPRINGS   SUNNY     28  20  71 SW10      30.09F WCI  19
KEMMERER       MOSUNNY   32  23  69 W9        30.09F WCI  24

$$



USA.gov is the U.S. government's official web portal to all federal, state and local government web resources and services.